User: anonymous   Login
Location: Albany
(35.0000°S, 118.0000°E)
Time: 08:21:49
(UTC-04:00)
Language:

JAS-1B - Orbit

View from above orbital plane
View from above orbital plane
View from above satellite
View from above satellite

Ground track
Ground track

The orbit data is extracted from the following two-line orbital elements,

1 20480U 90013C   15183.56452641 -.00000022  00000-0  27463-4 0  9999
2 20480 099.0664 080.8330 0539901 212.6145 275.8024 12.83405720189929
Epoch (UTC): 02 July 2015 13:32:55
Eccentricity: 0.0539901
inclination: 99.0664°
perigee height: 912 km
apogee height: 1744 km
right ascension of ascending node: 80.8330°
argument of perigee: 212.6145°
revolutions per day: 12.83405720
mean anomaly at epoch: 275.8024°
orbit number at epoch: 18992

The dashed part of the orbit path shows where the satellite is in the earth's shadow,  

DLR